H1 CPF 2 NER 2026 7 16 9 197 01 glonass128 H2 1106401 9128 37867 2026 7 16 0 0 0 2026 7 19 23 45 0 900 1 1 0 0 0 1 H9 10 0 61237 0.00000 0 -6444376.935 16902398.165 -17969368.154 10 0 61237 900.00000 0 -7863689.770 18441226.933 -15765977.518 10 0 61237 1800.00000 0 -8969022.076 19866511.170 -13256218.199 10 0 61237 2700.00000 0 -9762786.802 21115840.521 -10489060.821 10 0 61237 3600.00000 0 -10260092.250 22130658.796 -7518392.486 10 0 61237 4500.00000 0 -10487827.257 22858743.535 -4401959.413 10 0 61237 5400.00000 0 -10483260.065 23256433.640 -1200241.271 10 0 61237 6300.00000 0 -10292212.591 23290513.010 2024720.605 10 0 61237 7200.00000 0 -9966889.028 22939672.870 5210518.365 10 0 61237 8100.00000 0 -9563451.430 22195493.391 8295573.551 10 0 61237 9000.00000 0 -9139444.694 21062905.216 11220311.533 10 0 61237 9900.00000 0 -8751178.900 19560113.005 13928293.103 10 0 61237 10800.00000 0 -8451178.065 17717985.119 16367283.035 10 0 61237 11700.00000 0 -8285801.057 15578935.098 18490236.913 10 0 61237 12600.00000 0 -8293132.961 13195341.002 20256189.169 10 0 61237 13500.00000 0 -8501233.872 10627567.124 21631027.166 10 0 61237 14400.00000 0 -8926817.435 7941668.221 22588138.117 10 0 61237 15300.00000 0 -9574414.023 5206869.126 23108917.701 10 0 61237 16200.00000 0 -10436053.882 2492921.427 23183131.343 10 0 61237 17100.00000 0 -11491484.671 -132556.077 22809121.389 10 0 61237 18000.00000 0 -12708916.239 -2606645.504 21993855.627 10 0 61237 18900.00000 0 -14046264.066 -4873502.315 20752815.033 10 0 61237 19800.00000 0 -15452842.339 -6886435.123 19109721.113 10 0 61237 20700.00000 0 -16871438.842 -8609607.205 17096105.868 10 0 61237 21600.00000 0 -18240687.580 -10019288.936 14750730.144 10 0 61237 22500.00000 0 -19497641.894 -11104608.190 12118859.076 10 0 61237 23400.00000 0 -20580441.494 -11867766.118 9251406.253 10 0 61237 24300.00000 0 -21430961.734 -12323707.708 6203961.243 10 0 61237 25200.00000 0 -21997333.073 -12499259.429 3035717.930 10 0 61237 26100.00000 0 -22236222.930 -12431768.897 -191676.122 10 0 61237 27000.00000 0 -22114781.337 -12167303.137 -3415326.821 10 0 61237 27900.00000 0 -21612165.311 -11758481.427 -6572332.818 10 0 61237 28800.00000 0 -20720574.413 -11262034.991 -9601031.238 10 0 61237 29700.00000 0 -19445750.734 -10736198.317 -12442223.509 10 0 61237 30600.00000 0 -17806919.528 -10238044.607 -15040355.134 10 0 61237 31500.00000 0 -15836171.057 -9820880.776 -17344623.924 10 0 61237 32400.00000 0 -13577308.484 -9531815.022 -19309992.873 10 0 61237 33300.00000 0 -11084209.980 -9409602.521 -20898086.018 10 0 61237 34200.00000 0 -8418774.286 -9482862.658 -22077948.359 10 0 61237 35100.00000 0 -5648536.974 -9768744.765 -22826654.208 10 0 61237 36000.00000 0 -2844058.602 -10272099.671 -23129751.854 10 0 61237 36900.00000 0 -76195.538 -10985192.156 -22981536.188 10 0 61237 37800.00000 0 2586631.325 -11887965.821 -22385144.839 10 0 61237 38700.00000 0 5081055.154 -12948847.991 -21352477.163 10 0 61237 39600.00000 0 7351159.723 -14126059.042 -19903939.250 10 0 61237 40500.00000 0 9350554.665 -15369369.124 -18068021.605 10 0 61237 41400.00000 0 11044044.457 -16622226.390 -15880719.561 10 0 61237 42300.00000 0 12408823.801 -17824165.485 -13384809.448 10 0 61237 43200.00000 0 13435152.520 -18913393.611 -10628996.267 10 0 61237 44100.00000 0 14126485.237 -19829444.652 -7666950.850 10 0 61237 45000.00000 0 14499054.066 -20515789.496 -4556256.388 10 0 61237 45900.00000 0 14580925.372 -20922293.272 -1357285.599 10 0 61237 46800.00000 0 14410573.374 -21007417.191 1867969.305 10 0 61237 47700.00000 0 14035033.076 -20740073.895 5057091.116 10 0 61237 48600.00000 0 13507711.902 -20101060.052 8148433.984 10 0 61237 49500.00000 0 12885952.948 -19084007.776 11082299.366 10 0 61237 50400.00000 0 12228452.300 -17695816.421 13802070.155 10 0 61237 51300.00000 0 11592638.218 -15956547.694 16255282.741 10 0 61237 52200.00000 0 11032120.905 -13898788.815 18394618.228 10 0 61237 53100.00000 0 10594318.229 -11566509.933 20178795.675 10 0 61237 54000.00000 0 10318355.185 -9013462.226 21573352.085 10 0 61237 54900.00000 0 10233323.581 -6301181.416 22551295.857 10 0 61237 55800.00000 0 10356973.747 -3496677.120 23093622.428 10 0 61237 56700.00000 0 10694892.591 -669901.030 23189682.991 10 0 61237 57600.00000 0 11240202.823 2108904.216 22837399.381 10 0 61237 58500.00000 0 11973797.098 4771868.478 22043320.450 10 0 61237 59400.00000 0 12865099.258 7256062.025 20822517.725 10 0 61237 60300.00000 0 13873323.303 9505863.405 19198320.523 10 0 61237 61200.00000 0 14949180.129 11475030.072 17201893.460 10 0 61237 62100.00000 0 16036963.250 13128386.098 14871661.975 10 0 61237 63000.00000 0 17076928.361 14443056.238 12252594.390 10 0 61237 63900.00000 0 18007868.497 15409193.724 9395352.074 10 0 61237 64800.00000 0 18769777.301 16030169.867 6355322.147 10 0 61237 65700.00000 0 19306488.090 16322215.791 3191550.103 10 0 61237 66600.00000 0 19568176.236 16313529.764 -34407.577 10 0 61237 67500.00000 0 19513617.180 16042886.526 -3259688.426 10 0 61237 68400.00000 0 19112101.945 15557806.667 -6421362.326 10 0 61237 69300.00000 0 18344925.979 14912363.513 -9457677.525 10 0 61237 70200.00000 0 17206385.229 14164721.192 -12309288.026 10 0 61237 71100.00000 0 15704234.252 13374509.669 -14920436.168 10 0 61237 72000.00000 0 13859584.591 12600150.028 -17240064.871 10 0 61237 72900.00000 0 11706245.860 11896245.691 -19222835.627 10 0 61237 73800.00000 0 9289536.296 11311152.439 -20830030.482 10 0 61237 74700.00000 0 6664612.658 10884832.268 -22030318.924 10 0 61237 75600.00000 0 3894390.086 10647083.507 -22800373.885 10 0 61237 76500.00000 0 1047140.166 10616223.006 -23125324.543 10 0 61237 77400.00000 0 -1806130.978 10798276.265 -22999037.415 10 0 61237 78300.00000 0 -4594413.645 11186709.147 -22424221.082 10 0 61237 79200.00000 0 -7249419.627 11762711.225 -21412353.719 10 0 61237 80100.00000 0 -9708187.103 12496017.013 -19983436.414 10 0 61237 81000.00000 0 -11915457.006 13346228.347 -18165578.793 10 0 61237 81900.00000 0 -13825722.738 14264579.902 -15994426.807 10 0 61237 82800.00000 0 -15404869.511 15196071.347 -13512445.610 10 0 61237 83700.00000 0 -16631337.432 16081874.489 -10768073.114 10 0 61237 84600.00000 0 -17496762.839 16861912.673 -7814762.106 10 0 61237 85500.00000 0 -18006074.484 17477503.083 -4709930.723 10 0 61238 0.00000 0 -18177044.068 17873950.556 -1513842.793 10 0 61238 900.00000 0 -18039313.319 18002984.427 1711561.577 10 0 61238 1800.00000 0 -17632941.120 17824936.425 4903858.110 10 0 61238 2700.00000 0 -17006534.142 17310570.153 8001336.279 10 0 61238 3600.00000 0 -16215040.522 16442486.251 10944176.469 10 0 61238 4500.00000 0 -15317299.847 15216045.964 13675586.606 10 0 61238 5400.00000 0 -14373451.876 13639775.481 16142877.663 10 0 61238 6300.00000 0 -13442311.619 11735234.660 18298459.214 10 0 61238 7200.00000 0 -12578819.204 9536355.508 20100737.791 10 0 61238 8100.00000 0 -11831669.477 7088277.053 21514902.708 10 0 61238 9000.00000 0 -11241218.705 4445723.384 22513585.966 10 0 61238 9900.00000 0 -10837754.349 1670989.930 23077384.851 10 0 61238 10800.00000 0 -10640199.241 -1168381.351 23195238.023 10 0 61238 11700.00000 0 -10655303.960 -4002144.628 22864648.049 10 0 61238 12600.00000 0 -10877361.640 -6760008.400 22091745.615 10 0 61238 13500.00000 0 -11288458.364 -9374301.982 20891193.025 10 0 61238 14400.00000 0 -11859250.546 -11782541.998 19285927.118 10 0 61238 15300.00000 0 -12550239.118 -13929793.962 17306744.303 10 0 61238 16200.00000 0 -13313489.572 -15770731.546 14991733.280 10 0 61238 17100.00000 0 -14094728.064 -17271307.726 12385563.790 10 0 61238 18000.00000 0 -14835727.369 -18409967.200 9538642.808 10 0 61238 18900.00000 0 -15476883.427 -19178347.946 6506152.512 10 0 61238 19800.00000 0 -15959874.177 -19581440.732 3346987.245 10 0 61238 20700.00000 0 -16230287.759 -19637198.002 122609.440 10 0 61238 21600.00000 0 -16240107.373 -19375607.008 -3104153.196 10 0 61238 22500.00000 0 -15949945.280 -18837265.115 -6270345.042 10 0 61238 23400.00000 0 -15330928.424 -18071516.975 -9314128.820 10 0 61238 24300.00000 0 -14366152.608 -17134232.636 -12176014.519 10 0 61238 25200.00000 0 -13051640.479 -16085321.612 -14800044.689 10 0 61238 26100.00000 0 -11396759.957 -14986089.800 -17134910.618 10 0 61238 27000.00000 0 -9424083.122 -13896553.211 -19134975.328 10 0 61238 27900.00000 0 -7168689.954 -12872824.407 -20761181.557 10 0 61238 28800.00000 0 -4676945.486 -11964684.332 -21981825.509 10 0 61238 29700.00000 0 -2004801.767 -11213443.882 -22773180.404 10 0 61238 30600.00000 0 784303.499 -10650186.664 -23119957.397 10 0 61238 31500.00000 0 3621862.544 -10294467.497 -23015595.114 10 0 61238 32400.00000 0 6436925.095 -10153521.109 -22462373.000 10 0 61238 33300.00000 0 9158827.001 -10222013.170 -21471347.438 10 0 61238 34200.00000 0 11719905.201 -10482342.310 -20062113.444 10 0 61238 35100.00000 0 14058085.545 -10905478.037 -18262398.262 10 0 61238 36000.00000 0 16119235.948 -11452296.659 -16107496.569 10 0 61238 36900.00000 0 17859187.924 -12075356.344 -13639560.076 10 0 61238 37800.00000 0 19245344.069 -12721034.134 -10906756.987 10 0 61238 38700.00000 0 20257806.976 -13331932.948 -7962319.100 10 0 61238 39600.00000 0 20889985.439 -13849455.754 -4863496.305 10 0 61238 40500.00000 0 21148655.916 -14216437.763 -1670439.575 10 0 61238 41400.00000 0 21053479.941 -14379725.742 1554965.386 10 0 61238 42300.00000 0 20636000.707 -14292596.389 4750291.220 10 0 61238 43200.00000 0 19938163.324 -13916913.090 7853765.985 10 0 61238 44100.00000 0 19010422.517 -13224931.691 10805452.003 10 0 61238 45000.00000 0 17909518.001 -12200680.830 13548384.900 10 0 61238 45900.00000 0 16696010.785 -10840860.137 16029652.519 10 0 61238 46800.00000 0 15431682.823 -9155219.402 18201394.773 10 0 61238 47700.00000 0 14176907.471 -7166403.010 20021707.123 10 0 61238 48600.00000 0 12988098.834 -4909265.488 21455432.237 10 0 61238 49500.00000 0 11915344.616 -2429685.249 22474826.357 10 0 61238 50400.00000 0 11000319.405 217076.274 23060088.868 10 0 61238 51300.00000 0 10274563.953 2968404.722 23199745.771 10 0 61238 52200.00000 0 9758201.306 5756671.053 22890879.885 10 0 61238 53100.00000 0 9459143.112 8511784.221 22139202.904 10 0 61238 54000.00000 0 9372819.770 11163855.589 20958966.802 10 0 61238 54900.00000 0 9482446.940 13645867.215 19372714.544 10 0 61238 55800.00000 0 9759819.054 15896235.264 17410872.730 10 0 61238 56700.00000 0 10166598.744 17861163.136 15111191.524 10 0 61238 57600.00000 0 10656050.261 19496686.681 12518040.129 10 0 61238 58500.00000 0 11175146.017 20770325.509 9681569.038 10 0 61238 59400.00000 0 11666958.945 21662270.138 6656753.283 10 0 61238 60300.00000 0 12073240.484 22166053.347 3502333.762 10 0 61238 61200.00000 0 12337075.062 22288675.557 279676.515 10 0 61238 62100.00000 0 12405497.640 22050176.939 -2948427.868 10 0 61238 63000.00000 0 12231961.528 21482672.687 -6119000.564 10 0 61238 63900.00000 0 11778549.209 20628891.111 -9170120.983 10 0 61238 64800.00000 0 11017829.398 19540276.002 -12042157.145 10 0 61238 65700.00000 0 9934278.417 18274733.954 -14678953.706 10 0 61238 66600.00000 0 8525202.595 16894123.053 -17028952.022 10 0 61238 67500.00000 0 6801120.056 15461590.874 -19046218.190 10 0 61238 68400.00000 0 4785583.699 14038876.301 -20691357.042 10 0 61238 69300.00000 0 2514451.605 12683691.236 -21932292.759 10 0 61238 70200.00000 0 34635.036 11447294.547 -22744900.000 10 0 61238 71100.00000 0 -2597623.133 10372361.864 -23113472.877 10 0 61238 72000.00000 0 -5318866.592 9491241.633 -23031022.897 10 0 61238 72900.00000 0 -8060850.576 8824670.659 -22499400.861 10 0 61238 73800.00000 0 -10753171.065 8381002.157 -21529241.511 10 0 61238 74700.00000 0 -13325987.292 8155976.990 -20139733.536 10 0 61238 75600.00000 0 -15712723.287 8133045.286 -18358221.144 10 0 61238 76500.00000 0 -17852635.646 8284222.067 -16219646.698 10 0 61238 77400.00000 0 -19693140.965 8571437.890 -13765847.089 10 0 61238 78300.00000 0 -21191807.124 8948324.742 -11044719.177 10 0 61238 79200.00000 0 -22317927.307 9362359.443 -8109271.945 10 0 61238 80100.00000 0 -23053613.518 9757272.200 -5016585.061 10 0 61238 81000.00000 0 -23394366.836 10075617.505 -1826694.864 10 0 61238 81900.00000 0 -23349103.615 10261398.374 1398570.115 10 0 61238 82800.00000 0 -22939639.482 10262633.456 4596781.423 10 0 61238 83700.00000 0 -22199655.321 10033759.566 7706108.101 10 0 61238 84600.00000 0 -21173190.532 9537769.616 10666496.903 10 0 61238 85500.00000 0 -19912727.864 8747997.402 13420813.744 10 0 61239 0.00000 0 -18476950.543 7649475.652 15915925.756 10 0 61239 900.00000 0 -16928264.224 6239810.714 18103706.246 10 0 61239 1800.00000 0 -15330188.161 4529539.235 19941941.863 10 0 61239 2700.00000 0 -13744720.206 2541949.713 21395130.944 10 0 61239 3600.00000 0 -12229785.387 312376.685 22435156.017 10 0 61239 4500.00000 0 -10836871.594 -2113005.447 23041820.286 10 0 61239 5400.00000 0 -9608949.043 -4678841.228 23203238.427 10 0 61239 6300.00000 0 -8578758.718 -7322639.797 22916074.433 10 0 61239 7200.00000 0 -7767540.233 -9977125.725 22185621.493 10 0 61239 8100.00000 0 -7184252.000 -12572800.811 21025721.279 10 0 61239 9000.00000 0 -6825316.829 -15040613.475 19458522.475 10 0 61239 9900.00000 0 -6674904.826 -17314627.230 17514081.010 10 0 61239 10800.00000 0 -6705743.456 -19334578.882 15229807.242 10 0 61239 11700.00000 0 -6880422.776 -21048220.592 12649768.182 10 0 61239 12600.00000 0 -7153142.876 -22413347.812 9823855.864 10 0 61239 13500.00000 0 -7471831.558 -23399427.236 6806835.927 10 0 61239 14400.00000 0 -7780543.899 -23988754.783 3657293.369 10 0 61239 15300.00000 0 -8022042.524 -24177092.830 436495.209 10 0 61239 16200.00000 0 -8140448.710 -23973757.628 -2792807.838 10 0 61239 17100.00000 0 -8083850.481 -23401151.114 -5967616.623 10 0 61239 18000.00000 0 -7806754.790 -22493755.296 -9025930.214 10 0 61239 18900.00000 0 -7272276.963 -21296630.705 -11907977.709 10 0 61239 19800.00000 0 -6453971.372 -19863482.197 -14557408.913 10 0 61239 20700.00000 0 -5337222.627 -18254374.451 -16922418.249 10 0 61239 21600.00000 0 -3920135.488 -16533194.939 -18956777.714 10 0 61239 22500.00000 0 -2213883.495 -14764973.217 -20620756.795 10 0 61239 23400.00000 0 -242499.940 -13013171.588 -21881909.855 10 0 61239 24300.00000 0 1957880.955 -11337063.185 -22715714.733 10 0 61239 25200.00000 0 4340300.927 -9789309.367 -23106049.750 10 0 61239 26100.00000 0 6848718.504 -8413839.250 -23045500.040 10 0 61239 27000.00000 0 9420139.886 -7244120.596 -22535488.005 10 0 61239 27900.00000 0 11987049.468 -6301893.957 -21586226.517 10 0 61239 28800.00000 0 14480037.140 -5596421.659 -20216497.287 10 0 61239 29700.00000 0 16830511.590 -5124280.786 -18453260.398 10 0 61239 30600.00000 0 18973385.770 -4869705.982 -16331104.398 10 0 61239 31500.00000 0 20849622.379 -4805464.427 -13891549.442 10 0 61239 32400.00000 0 22408533.789 -4894222.880 -11182218.696 10 0 61239 33300.00000 0 23609741.739 -5090346.235 -8255895.588 10 0 61239 34200.00000 0 24424716.892 -5342049.193 -5169486.464 10 0 61239 35100.00000 0 24837836.392 -5593808.436 -1982909.658 10 0 61239 36000.00000 0 24846917.910 -5788932.399 1242066.981 10 0 61239 36900.00000 0 24463210.647 -5872179.862 4443017.460 10 0 61239 37800.00000 0 23710846.205 -5792317.266 7558055.244 10 0 61239 38700.00000 0 22625774.444 -5504507.864 10527014.749 10 0 61239 39600.00000 0 21254230.238 -4972433.354 13292595.097 10 0 61239 40500.00000 0 19650795.987 -4170060.124 15801445.678 10 0 61239 41400.00000 0 17876140.597 -3082977.118 18005174.452 10 0 61239 42300.00000 0 15994528.437 -1709250.007 19861261.479 10 0 61239 43200.00000 0 14071200.540 -59756.067 21333862.105 10 0 61239 44100.00000 0 12169735.076 1842014.839 22394486.091 10 0 61239 45000.00000 0 10349494.744 3960686.319 23022540.996 10 0 61239 45900.00000 0 8663265.039 6250220.484 23205730.304 10 0 61239 46800.00000 0 7155179.686 8655593.853 22940298.894 10 0 61239 47700.00000 0 5859018.152 11114857.676 22231120.744 10 0 61239 48600.00000 0 4796945.328 13561500.458 21091626.114 10 0 61239 49500.00000 0 3978745.859 15927017.695 19543567.906 10 0 61239 50400.00000 0 3401585.748 18143584.701 17616629.542 10 0 61239 51300.00000 0 3050312.452 20146723.283 15347879.447 10 0 61239 52200.00000 0 2898282.529 21877852.264 12781080.078 10 0 61239 53100.00000 0 2908683.862 23286615.481 9965862.461 10 0 61239 54000.00000 0 3036298.475 24332889.093 6956780.163 10 0 61239 54900.00000 0 3229632.790 24988382.505 3812259.517 10 0 61239 55800.00000 0 3433325.921 25237763.454 593465.731 10 0 61239 56700.00000 0 3590733.841 25079257.496 -2636893.115 10 0 61239 57600.00000 0 3646578.855 24524694.184 -5815800.194 10 0 61239 58500.00000 0 3549550.124 23598995.872 -8881176.707 10 0 61239 59400.00000 0 3254742.386 22339129.169 -11773115.064 10 0 61239 60300.00000 0 2725826.428 20792562.496 -14435072.195 10 0 61239 61200.00000 0 1936856.160 19015294.894 -16814997.285 10 0 61239 62100.00000 0 873632.743 17069539.997 -18866369.668 10 0 61239 63000.00000 0 -465434.568 15021164.202 -20549124.682 10 0 61239 63900.00000 0 -2069009.223 12936988.731 -21830447.854 10 0 61239 64800.00000 0 -3913064.568 10882070.959 -22685420.985 10 0 61239 65700.00000 0 -5961667.967 8917080.928 -23097507.167 10 0 61239 66600.00000 0 -8168278.655 7095884.409 -23058865.465 10 0 61239 67500.00000 0 -10477504.089 5463434.385 -22570489.890 10 0 61239 68400.00000 0 -12827240.019 4054058.979 -21642171.107 10 0 61239 69300.00000 0 -15151103.294 2890216.381 -20292283.118 10 0 61239 70200.00000 0 -17381054.424 1981766.823 -18547400.780 10 0 61239 71100.00000 0 -19450099.253 1325789.340 -16441757.372 10 0 61239 72000.00000 0 -21294956.332 906947.733 -14016554.561 10 0 61239 72900.00000 0 -22858578.642 698386.826 -11319139.861 10 0 61239 73800.00000 0 -24092425.003 663117.891 -8402069.036 10 0 61239 74700.00000 0 -24958387.624 755831.847 -5322072.910 10 0 61239 75600.00000 0 -25430297.107 925061.306 -2138949.563 10 0 61239 76500.00000 0 -25494944.302 1115598.515 1085596.140 10 0 61239 77400.00000 0 -25152578.724 1271066.279 4289143.011 10 0 61239 78300.00000 0 -24416865.131 1336533.237 7409751.335 10 0 61239 79200.00000 0 -23314302.186 1261063.768 10387145.621 10 0 61239 80100.00000 0 -21883129.084 1000096.151 13163860.650 10 0 61239 81000.00000 0 -20171766.734 517550.221 15686330.283 10 0 61239 81900.00000 0 -18236858.651 -212422.715 17905899.891 10 0 61239 82800.00000 0 -16140992.559 -1204120.036 19779744.851 10 0 61239 83700.00000 0 -13950196.209 -2459452.753 21271679.408 10 0 61239 84600.00000 0 -11731309.578 -3967630.266 22352842.117 10 0 61239 85500.00000 0 -9549340.420 -5705378.996 23002246.098 10 0 61240 0.00000 0 -7464910.733 -7637687.299 23207184.448 10 0 61240 900.00000 0 -5531896.837 -9719049.161 22963483.376 10 0 61240 1800.00000 0 -3795361.977 -11895155.248 22275597.620 10 0 61240 2700.00000 0 -2289862.364 -14104967.708 21156545.646 10 0 61240 3600.00000 0 -1038199.339 -16283093.124 19627683.822 10 0 61240 4500.00000 0 -50668.653 -18362358.820 17718321.949 10 0 61240 5400.00000 0 675160.818 -20276487.353 15465185.062 10 0 61240 6300.00000 0 1154128.378 -21962759.200 12911729.290 10 0 61240 7200.00000 0 1412634.584 -23364552.903 10107322.598 10 0 61240 8100.00000 0 1487300.100 -24433655.975 7106304.197 10 0 61240 9000.00000 0 1423185.434 -25132248.309 3966939.295 10 0 61240 9900.00000 0 1271645.899 -25434472.683 750288.713 10 0 61240 10800.00000 0 1087912.308 -25327523.750 -2480984.753 10 0 61240 11700.00000 0 928500.545 -24812206.897 -5663849.300 10 0 61240 12600.00000 0 848561.305 -23902940.854 -8736150.981 10 0 61240 13500.00000 0 899284.578 -22627201.804 -11637848.240 10 0 61240 14400.00000 0 1125471.748 -21024431.022 -14312207.816 10 0 61240 15300.00000 0 1563381.237 -19144451.490 -16706936.248 10 0 61240 16200.00000 0 2238942.031 -17045460.396 -18775222.627 10 0 61240 17100.00000 0 3166413.422 -14791683.021 -20476670.317 10 0 61240 18000.00000 0 4347549.871 -12450788.148 -21778097.844 10 0 61240 18900.00000 0 5771307.786 -10091175.368 -22654192.418 10 0 61240 19800.00000 0 7414107.375 -7779249.815 -23088002.909 10 0 61240 20700.00000 0 9240638.593 -5576800.035 -23071262.881 10 0 61240 21600.00000 0 11205176.670 -3538589.617 -22604538.086 10 0 61240 22500.00000 0 13253350.927 -1710263.456 -21697196.706 10 0 61240 23400.00000 0 15324291.255 -126655.469 -20367204.381 10 0 61240 24300.00000 0 17353060.870 1189433.158 -18640749.717 10 0 61240 25200.00000 0 19273272.183 2227936.557 -16551709.338 10 0 61240 26100.00000 0 21019775.311 2991681.315 -14140964.660 10 0 61240 27000.00000 0 22531306.311 3495995.142 -11455585.405 10 0 61240 27900.00000 0 23752984.476 3767787.156 -8547897.157 10 0 61240 28800.00000 0 24638555.013 3844141.935 -5474452.391 10 0 61240 29700.00000 0 25152284.617 3770489.567 -2294925.828 10 0 61240 30600.00000 0 25270432.491 3598431.113 929043.908 10 0 61240 31500.00000 0 24982237.354 3383312.754 4135043.737 10 0 61240 32400.00000 0 24290381.386 3181651.573 7261084.004 10 0 61240 33300.00000 0 23210913.690 3048521.423 10246782.387 10 0 61240 34200.00000 0 21772638.125 3035008.264 13034512.154 10 0 61240 35100.00000 0 20015992.090 3185840.868 15570494.160 10 0 61240 36000.00000 0 17991463.319 3537295.085 17805813.394 10 0 61240 36900.00000 0 15757610.195 4115458.334 19697342.413 10 0 61240 37800.00000 0 13378766.727 4934926.045 21208555.876 10 0 61240 38700.00000 0 10922525.701 5997984.214 22310222.302 10 0 61240 39600.00000 0 8457102.210 7294312.507 22980961.165 10 0 61240 40500.00000 0 6048684.399 8801221.424 23207655.577 10 0 61240 41400.00000 0 3758878.740 10484415.572 22985712.973 10 0 61240 42300.00000 0 1642353.616 12299253.741 22319168.446 10 0 61240 43200.00000 0 -255222.776 14192456.396 21220627.717 10 0 61240 44100.00000 0 -1898865.672 16104192.624 19711049.203 10 0 61240 45000.00000 0 -3265508.409 17970462.638 17819367.245 10 0 61240 45900.00000 0 -4344736.769 19725679.105 15581961.271 10 0 61240 46800.00000 0 -5138991.341 21305341.409 13041978.567 10 0 61240 47700.00000 0 -5663228.027 22648692.008 10248521.305 10 0 61240 48600.00000 0 -5944049.403 23701243.603 7255711.453 10 0 61240 49500.00000 0 -6018341.985 24417070.096 4121650.130 10 0 61240 50400.00000 0 -5931475.748 24760763.141 907290.784 10 0 61240 51300.00000 0 -5735141.470 24708969.470 -2324752.019 10 0 61240 52200.00000 0 -5484917.602 24251441.300 -5511434.330 10 0 61240 53100.00000 0 -5237670.813 23391552.639 -8590529.714 10 0 61240 54000.00000 0 -5048902.183 22146257.106 -11501865.075 10 0 61240 54900.00000 0 -4970153.990 20545486.974 -14188519.098 10 0 61240 55800.00000 0 -5046589.882 18631017.468 -16597957.500 10 0 61240 56700.00000 0 -5314853.859 16454843.745 -18683080.652 10 0 61240 57600.00000 0 -5801301.552 14077139.158 -20403161.157 10 0 61240 58500.00000 0 -6520680.932 11563881.705 -21724651.486 10 0 61240 59400.00000 0 -7475319.939 8984249.771 -22621844.923 10 0 61240 60300.00000 0 -8654856.322 6407898.009 -23077376.524 10 0 61240 61200.00000 0 -10036521.294 3902228.986 -23082554.465 10 0 61240 62100.00000 0 -11585964.580 1529775.846 -22637516.036 10 0 61240 63000.00000 0 -13258585.133 -654194.132 -21751206.377 10 0 61240 63900.00000 0 -15001310.114 -2603755.254 -20441181.832 10 0 61240 64800.00000 0 -16754745.851 -4283992.942 -18733243.452 10 0 61240 65700.00000 0 -18455608.967 -5672199.357 -16660909.546 10 0 61240 66600.00000 0 -20039334.348 -6758547.983 -14264739.348 10 0 61240 67500.00000 0 -21442749.769 -7546222.288 -11591522.620 10 0 61240 68400.00000 0 -22606704.684 -8050996.814 -8693352.463 10 0 61240 69300.00000 0 -23478543.279 -8300291.925 -5626600.593 10 0 61240 70200.00000 0 -24014318.999 -8331745.385 -2450815.925 10 0 61240 71100.00000 0 -24180659.165 -8191363.712 772431.638 10 0 61240 72000.00000 0 -23956203.292 -7931333.281 3980739.639 10 0 61240 72900.00000 0 -23332556.834 -7607584.664 7112070.997 10 0 61240 73800.00000 0 -22314722.331 -7277213.253 10105939.081 10 0 61240 74700.00000 0 -20920991.502 -6995864.397 12904558.119 10 0 61240 75600.00000 0 -19182303.945 -6815192.146 15453938.350 10 0 61240 76500.00000 0 -17141099.594 -6780497.035 17704906.607 10 0 61240 77400.00000 0 -14849712.484 -6928640.585 19614034.617 10 0 61240 78300.00000 0 -12368371.568 -7286322.634 21144459.146 10 0 61240 79200.00000 0 -9762889.863 -7868792.658 22266580.006 10 0 61240 80100.00000 0 -7102135.558 -8679048.680 22958623.964 10 0 61240 81000.00000 0 -4455387.256 -9707557.663 23207064.680 10 0 61240 81900.00000 0 -1889680.232 -10932510.309 23006890.989 10 0 61240 82800.00000 0 532748.915 -12320601.662 22361718.049 10 0 61240 83700.00000 0 2756815.399 -13828307.539 21283738.232 10 0 61240 84600.00000 0 4736641.157 -15403606.563 19793511.067 10 0 61240 85500.00000 0 6437226.921 -16988078.948 17919594.161 99